This demonstration page uses our WeatherBlox Daily Observations layout. Learn more.

39.29038, -76.61219

Hourly Observations for August 29, 2019

Temp ( °F °C ) Dew Point ( °F °C ) Humidity (%) Winds ( mph kmh ) Pressure ( in mb ) Visibility ( mi km ) Precip ( " mm )
12:54 am 00:54 undefined 69 20.6 65 18.3 87 87 undefined N/A 29.89 1012 N/A 0 0
1:54 am 01:54 undefined 70 21.1 65 18.3 84 84 undefined N/A 29.89 1012 N/A 0 0
2:54 am 02:54 undefined 70 21.1 62 16.7 76 76 undefined N/A 29.9 1012 N/A 0 0
3:54 am 03:54 undefined 69 20.6 60 15.6 73 73 undefined N/A 29.91 1013 N/A 0 0
4:54 am 04:54 undefined 69 20.6 58 14.4 68 68 undefined N/A 29.92 1013 N/A 0 0
5:54 am 05:54 undefined 69 20.6 57 13.9 66 66 undefined N/A 29.93 1014 N/A 0 0
6:54 am 06:54 undefined 68 20 56 13.3 65 65 undefined N/A 29.95 1014 N/A 0 0
7:54 am 07:54 undefined 70 21.1 56 13.3 61 61 undefined N/A 29.96 1014 N/A 0 0
8:54 am 08:54 undefined 74 23.3 56 13.3 54 54 undefined N/A 29.96 1015 N/A 0 0
9:54 am 09:54 undefined 77 25 55 12.8 47 47 undefined N/A 29.98 1015 N/A 0 0
10:54 am 10:54 undefined 79 26.1 56 13.3 45 45 undefined N/A 30 1016 N/A 0 0
11:54 am 11:54 undefined 80 26.7 55 12.8 42 42 undefined N/A 30 1016 N/A 0 0
12:54 pm 12:54 undefined 81 27.2 56 13.3 42 42 undefined N/A 29.99 1016 N/A 0 0
1:54 pm 13:54 undefined 82 27.8 54 12.2 38 38 undefined N/A 29.98 1015 N/A 0 0
2:54 pm 14:54 undefined 82 27.8 53 11.7 37 37 undefined N/A 29.97 1015 N/A 0 0
3:54 pm 15:54 undefined 82 27.8 53 11.7 37 37 undefined N/A 29.96 1015 N/A 0 0
4:54 pm 16:54 undefined 83 28.3 54 12.2 37 37 undefined N/A 29.97 1015 N/A 0 0
5:54 pm 17:54 undefined 80 26.7 54 12.2 41 41 undefined N/A 29.97 1015 N/A 0 0
6:54 pm 18:54 undefined 80 26.7 54 12.2 41 41 undefined N/A 29.98 1015 N/A 0 0
7:54 pm 19:54 undefined 79 26.1 54 12.2 42 42 undefined N/A 29.99 1016 N/A 0 0
8:54 pm 20:54 undefined 78 25.6 55 12.8 45 45 undefined N/A 30 1016 N/A 0 0
9:54 pm 21:54 undefined 76 24.4 56 13.3 50 50 undefined N/A 30.01 1016 N/A 0 0
10:54 pm 22:54 undefined 74 23.3 57 13.9 56 56 undefined N/A 30.03 1017 N/A 0 0
11:54 pm 23:54 undefined 72 22.2 58 14.4 61 61 undefined N/A 30.02 1017 N/A 0 0

Powered by AerisWeather